Location: São Paulo
(23.5507°S, 46.6334°W)
Time: 10:36:30
(UTC-03:00)

Transit 4A - Pass Details

Date: 19 February 2026
Orbit: 864 x 977 km, 66.8° (Epoch: 11 March)

Event Time Altitude Azimuth Distance (km) Brightness Sun altitude
Rises 02:26:13 0° 225° (SW) 3,483 - -43.5°
Reaches altitude 10° 02:29:25 10° 242° (WSW) 2,525 - -43.0°
Maximum altitude 02:33:24 19° 285° (WNW) 1,935 - -42.4°
Drops below altitude 10° 02:37:21 10° 329° (NNW) 2,496 - -41.7°
Sets 02:40:30 0° 346° (NNW) 3,427 - -41.2°
